Weather History for Big Piney, WY

Change the Weather History Date:

Thursday, May 23, 2013

  Actual Average Record
Temperature  
Mean Temperature 58 °F 48 °F  
Max Temperature 72 °F 64 °F 78 °F (2003)
Min Temperature 43 °F 32 °F 18 °F (1986)
Degree Days  
Heating Degree Days 7 17  
Month to date heating degree days 380 469  
Since 1 July heating degree days 9287 10000  
Cooling Degree Days 0 0  
Month to date cooling degree days 0 0  
Year to date cooling degree days 0 0  
Growing Degree Days 8 (Base 50)    
Moisture  
Dew Point 28 °F    
Average Humidity 39    
Maximum Humidity 65    
Minimum Humidity 13    
Precipitation  
Precipitation 0.00 in 0.03 in 0.58 in (1980)
Month to date precipitation 0.79 0.62  
Year to date precipitation 1.23 2.25  
Sea Level Pressure  
Sea Level Pressure 29.60 in    
Wind  
Wind Speed 13 mph (SSW)    
Max Wind Speed 29 mph    
Max Gust Speed 45 mph    
Visibility 10 miles    
Events      
T = Trace of Precipitation, MM = Missing Value Source: NWS Daily Summary

Daily Weather History Graph

Daily Weather History Graph

Search for Another Location

Airport:

Trip Planner

Search our weather history database for the weather conditions in past years. The results will help you decide how hot, cold, wet, or windy it might be!

Date:

Astronomy

May. 23, 2013 Rise Set
Actual Time 5:50 AM MDT 8:44 PM MDT
Civil Twilight 5:17 AM MDT 9:17 PM MDT
Nautical Twilight 4:35 AM MDT 9:59 PM MDT
Astronomical Twilight 3:46 AM MDT 10:49 PM MDT
Moon 7:19 PM MDT (5/23) 4:40 AM MDT (5/23)
Length of Visible Light 15h 59m
Length of Day
14h 53m
Waxing Gibbous, 97% of the Moon is Illuminated
May 23
Waxing Gibbous
May 24
Full
May 31
Last Quarter
Jun 8
New
Jun 16
First Quarter

Hourly Weather History & Observations

Time (MDT) Temp. Windchill Dew Point Humidity Pressure Visibility Wind Dir Wind Speed Gust Speed Precip Events Conditions
12:53 AM 57.9 °F - 30.9 °F 36% 29.48 in 10.0 mi SE 11.5 mph - N/A   Overcast
1:53 AM 54.0 °F - 35.1 °F 49% 29.51 in 10.0 mi SSE 12.7 mph - N/A   Mostly Cloudy
2:53 AM 51.1 °F - 34.0 °F 52% 29.54 in 10.0 mi SSE 11.5 mph - N/A   Partly Cloudy
3:53 AM 50.0 °F - 34.0 °F 54% 29.57 in 10.0 mi SSE 13.8 mph 23.0 mph N/A   Clear
4:53 AM 48.9 °F - 34.0 °F 56% 29.59 in 10.0 mi SSE 12.7 mph - N/A   Clear
5:53 AM 45.0 °F 41.2 °F 34.0 °F 65% 29.61 in 10.0 mi South 6.9 mph - N/A   Clear
6:53 AM 48.0 °F - 35.1 °F 61% 29.63 in 10.0 mi SSW 5.8 mph - N/A   Clear
7:53 AM 53.1 °F - 35.1 °F 50% 29.63 in 10.0 mi South 12.7 mph - N/A   Clear
8:53 AM 55.0 °F - 36.0 °F 49% 29.63 in 10.0 mi South 11.5 mph - N/A   Clear
9:53 AM 60.1 °F - 35.1 °F 39% 29.61 in 10.0 mi SW 9.2 mph - N/A   Clear
10:53 AM - - - N/A% 29.86 in - North - - N/A   Unknown
11:53 AM 66.9 °F - 26.1 °F 21% 29.57 in 10.0 mi South 18.4 mph 25.3 mph N/A   Clear
12:53 PM 69.1 °F - 19.0 °F 15% 29.55 in 10.0 mi South 15.0 mph 25.3 mph N/A   Clear
1:53 PM 70.0 °F - 17.1 °F 13% 29.55 in 10.0 mi SSW 15.0 mph 31.1 mph N/A   Clear
2:53 PM 71.1 °F - 18.0 °F 13% 29.54 in 10.0 mi SW 19.6 mph 25.3 mph N/A   Partly Cloudy
3:53 PM 71.1 °F - 19.9 °F 14% 29.52 in 10.0 mi WSW 18.4 mph 26.5 mph N/A   Clear
4:53 PM 69.1 °F - 24.1 °F 18% 29.53 in 10.0 mi WSW 18.4 mph - N/A   Partly Cloudy
5:53 PM 66.0 °F - 26.1 °F 22% 29.57 in 10.0 mi West 25.3 mph 32.2 mph N/A   Clear
6:53 PM 63.0 °F - 26.1 °F 25% 29.58 in 10.0 mi WNW 18.4 mph 27.6 mph N/A   Clear
7:53 PM 57.9 °F - 24.1 °F 27% 29.58 in 10.0 mi NW 16.1 mph - N/A   Clear
8:53 PM 54.0 °F - 26.1 °F 34% 29.61 in 10.0 mi ENE 4.6 mph - N/A   Mostly Cloudy
9:53 PM 54.0 °F - 27.0 °F 35% 29.61 in 10.0 mi ENE 9.2 mph - N/A   Overcast
10:53 PM 55.0 °F - 26.1 °F 33% 29.87 in 10.0 mi NNE 3.5 mph - N/A   Overcast
11:53 PM 48.9 °F - 30.0 °F 48% 29.65 in 10.0 mi NW 5.8 mph - N/A   Partly Cloudy